| time (UTC) | temp F | wind direction | speed knots | gust knots | rain 1hr in | rain 24hr in | rain mn in | humidity % | barometer mb |
| 20260506034030 | 31 | 172 | 0.9 | 3.5 | 0.00 | 0.13 | 0.00 | 84 | 1009.7 |
| 20260506033533 | 31 | 136 | 0.0 | 3.5 | 0.00 | 0.13 | 0.00 | 84 | 1009.6 |
| 20260506033043 | 31 | 134 | 0.9 | 3.5 | 0.00 | 0.13 | 0.00 | 85 | 1009.6 |
| 20260506032530 | 30 | 137 | 0.0 | 3.5 | 0.00 | 0.13 | 0.00 | 85 | 1009.6 |
| 20260506032030 | 31 | 149 | 0.9 | 4.3 | 0.00 | 0.13 | 0.00 | 85 | 1009.5 |
| 20260506031543 | 31 | 177 | 0.9 | 4.3 | 0.00 | 0.13 | 0.00 | 85 | 1009.6 |
| 20260506031032 | 31 | 0 | 0.9 | 4.3 | 0.00 | 0.13 | 0.00 | 85 | 1009.6 |
| 20260506030535 | 31 | 137 | 1.7 | 4.3 | 0.00 | 0.13 | 0.00 | 85 | 1009.5 |
| 20260506030043 | 30 | 255 | 0.9 | 4.3 | 0.00 | 0.13 | 0.00 | 85 | 1009.7 |
| 20260506025531 | 30 | 143 | 0.0 | 2.6 | 0.00 | 0.13 | 0.00 | 85 | 1009.6 |
| 20260506025031 | 30 | 243 | 0.0 | 2.6 | 0.00 | 0.13 | 0.00 | 85 | 1009.7 |
| 20260506024541 | 30 | 127 | 0.0 | 7.0 | 0.00 | 0.13 | 0.00 | 85 | 1009.6 |
| 20260506024029 | 31 | 159 | 0.0 | 7.0 | 0.00 | 0.13 | 0.00 | 85 | 1009.6 |
| 20260506023531 | 31 | 155 | 0.9 | 7.0 | 0.00 | 0.13 | 0.00 | 85 | 1009.6 |
| 20260506023059 | 31 | 0 | 0.9 | 3.5 | 0.00 | 0.13 | 0.00 | 85 | 1009.6 |
| 20260506022530 | 31 | 115 | 0.0 | 3.5 | 0.00 | 0.13 | 0.00 | 85 | 1009.6 |
| 20260506022030 | 30 | 0 | 0.0 | 3.5 | 0.00 | 0.13 | 0.00 | 85 | 1009.6 |
| 20260506021606 | 30 | 316 | 0.0 | 5.2 | 0.00 | 0.13 | 0.00 | 86 | 1009.7 |
| 20260506021035 | 30 | 0 | 0.9 | 5.2 | 0.00 | 0.13 | 0.00 | 86 | 1009.5 |
| 20260506020529 | 30 | 0 | 0.9 | 2.6 | 0.00 | 0.13 | 0.00 | 86 | 1009.6 |
| 20260506020039 | 30 | 288 | 0.9 | 2.6 | 0.00 | 0.13 | 0.00 | 86 | 1009.7 |
| 20260506015532 | 30 | 117 | 0.0 | 3.5 | 0.00 | 0.13 | 0.00 | 86 | 1009.6 |
| 20260506015036 | 30 | 143 | 0.0 | 3.5 | 0.00 | 0.13 | 0.00 | 85 | 1009.6 |
| 20260506014541 | 30 | 0 | 0.0 | 2.6 | 0.00 | 0.13 | 0.00 | 85 | 1009.6 |
| 20260506014029 | 30 | 331 | 0.0 | 2.6 | 0.00 | 0.13 | 0.00 | 84 | 1009.6 |
| 20260506013531 | 30 | 141 | 0.9 | 3.5 | 0.00 | 0.13 | 0.00 | 84 | 1009.6 |
| 20260506013044 | 31 | 160 | 0.9 | 4.3 | 0.00 | 0.13 | 0.00 | 84 | 1009.6 |
| 20260506012531 | 31 | 169 | 0.9 | 4.3 | 0.00 | 0.13 | 0.00 | 84 | 1009.6 |
| 20260506012029 | 31 | 150 | 0.9 | 3.5 | 0.00 | 0.13 | 0.00 | 84 | 1009.5 |
| 20260506011555 | 31 | 185 | 0.9 | 5.2 | 0.00 | 0.13 | 0.00 | 84 | 1009.6 |
| 20260506011030 | 31 | 97 | 1.7 | 5.2 | 0.00 | 0.13 | 0.00 | 84 | 1009.5 |
| 20260506010532 | 30 | 87 | 0.9 | 5.2 | 0.00 | 0.13 | 0.00 | 84 | 1009.6 |
| 20260506010046 | 30 | 137 | 0.9 | 5.2 | 0.00 | 0.13 | 0.00 | 84 | 1009.5 |
| 20260506005531 | 30 | 143 | 0.9 | 3.5 | 0.00 | 0.13 | 0.00 | 85 | 1009.6 |
| 20260506005032 | 30 | 134 | 0.9 | 3.5 | 0.00 | 0.13 | 0.00 | 85 | 1009.5 |
| 20260506004547 | 30 | 148 | 0.9 | 3.5 | 0.00 | 0.13 | 0.00 | 85 | 1009.5 |
| 20260506004031 | 30 | 224 | 0.9 | 2.6 | 0.00 | 0.13 | 0.00 | 86 | 1009.5 |
| 20260506003532 | 30 | 160 | 0.0 | 1.7 | 0.00 | 0.13 | 0.00 | 86 | 1009.5 |
| 20260506003048 | 30 | 0 | 0.0 | 1.7 | 0.00 | 0.13 | 0.00 | 86 | 1009.5 |
| 20260506002532 | 30 | 0 | 0.9 | 3.5 | 0.00 | 0.13 | 0.00 | 86 | 1009.6 |
| 20260506002033 | 30 | 126 | 0.0 | 3.5 | 0.00 | 0.13 | 0.00 | 85 | 1009.7 |
| 20260506001549 | 30 | 0 | 0.0 | 3.5 | 0.00 | 0.13 | 0.00 | 85 | 1009.6 |
| 20260506001031 | 30 | 0 | 0.0 | 1.7 | 0.00 | 0.13 | 0.00 | 85 | 1009.6 |
| 20260506000532 | 30 | 125 | 0.9 | 2.6 | 0.00 | 0.13 | 0.00 | 85 | 1009.6 |
| 20260506000048 | 30 | 131 | 0.0 | 3.5 | 0.00 | 0.13 | 0.00 | 86 | 1009.5 |
| 20260505235530 | 30 | 144 | 0.0 | 3.5 | 0.00 | 0.13 | 0.00 | 86 | 1009.7 |
| 20260505235030 | 31 | 161 | 0.9 | 4.3 | 0.00 | 0.13 | 0.00 | 86 | 1009.6 |
| 20260505234543 | 31 | 159 | 0.0 | 4.3 | 0.00 | 0.13 | 0.00 | 86 | 1009.5 |
| 20260505234031 | 30 | 327 | 0.0 | 3.5 | 0.00 | 0.13 | 0.00 | 86 | 1009.5 |
| 20260505233531 | 30 | 282 | 0.0 | 3.5 | 0.00 | 0.13 | 0.00 | 86 | 1009.3 |
| 20260505233044 | 30 | 236 | 0.0 | 4.3 | 0.00 | 0.13 | 0.00 | 86 | 1009.3 |
| 20260505232532 | 30 | 150 | 0.0 | 4.3 | 0.00 | 0.13 | 0.00 | 86 | 1009.3 |
| 20260505232031 | 30 | 110 | 0.9 | 4.3 | 0.00 | 0.13 | 0.00 | 87 | 1009.4 |
| 20260505231603 | 30 | 165 | 0.0 | 6.1 | 0.00 | 0.13 | 0.00 | 86 | 1009.3 |
| 20260505231030 | 30 | 0 | 0.0 | 6.1 | 0.00 | 0.13 | 0.00 | 86 | 1009.3 |
| 20260505230530 | 30 | 162 | 0.0 | 2.6 | 0.00 | 0.13 | 0.00 | 85 | 1009.3 |
| 20260505230044 | 30 | 172 | 0.0 | 2.6 | 0.00 | 0.13 | 0.00 | 85 | 1009.3 |
| 20260505225531 | 30 | 114 | 0.0 | 2.6 | 0.00 | 0.13 | 0.00 | 85 | 1009.4 |
| 20260505225030 | 31 | 0 | 0.9 | 2.6 | 0.00 | 0.13 | 0.00 | 85 | 1009.4 |
| 20260505224543 | 31 | 0 | 0.0 | 3.5 | 0.00 | 0.13 | 0.00 | 85 | 1009.3 |
| 20260505224031 | 31 | 134 | 0.0 | 3.5 | 0.00 | 0.13 | 0.00 | 85 | 1009.4 |
| 20260505223531 | 31 | 240 | 0.9 | 3.5 | 0.00 | 0.13 | 0.00 | 85 | 1009.4 |
| 20260505223041 | 31 | 242 | 0.0 | 3.5 | 0.00 | 0.13 | 0.00 | 84 | 1009.4 |
| 20260505222530 | 31 | 0 | 0.9 | 3.5 | 0.00 | 0.13 | 0.00 | 85 | 1009.4 |
| 20260505222031 | 31 | 139 | 0.9 | 4.3 | 0.00 | 0.13 | 0.00 | 85 | 1009.5 |
| 20260505221548 | 31 | 0 | 0.0 | 4.3 | 0.00 | 0.13 | 0.00 | 85 | 1009.5 |
| 20260505221030 | 31 | 0 | 0.9 | 3.5 | 0.00 | 0.13 | 0.00 | 85 | 1009.4 |
| 20260505220531 | 31 | 167 | 0.0 | 3.5 | 0.00 | 0.13 | 0.00 | 85 | 1009.5 |
| 20260505220051 | 31 | 0 | 0.9 | 3.5 | 0.00 | 0.13 | 0.00 | 85 | 1009.5 |
| 20260505215531 | 31 | 146 | 0.0 | 2.6 | 0.00 | 0.13 | 0.13 | 85 | 1009.4 |
| 20260505215031 | 31 | 145 | 0.0 | 2.6 | 0.00 | 0.13 | 0.13 | 85 | 1009.5 |
| 20260505214554 | 31 | 146 | 0.0 | 2.6 | 0.00 | 0.13 | 0.13 | 86 | 1009.5 |
| 20260505214030 | 31 | 147 | 0.0 | 2.6 | 0.00 | 0.13 | 0.13 | 86 | 1009.5 |
| 20260505213530 | 31 | 0 | 0.0 | 5.2 | 0.00 | 0.13 | 0.13 | 86 | 1009.4 |
| 20260505213049 | 31 | 0 | 0.9 | 5.2 | 0.00 | 0.13 | 0.13 | 86 | 1009.2 |
| 20260505212531 | 31 | 0 | 0.0 | 1.7 | 0.00 | 0.13 | 0.13 | 86 | 1009.2 |
| 20260505212033 | 31 | 128 | 0.0 | 1.7 | 0.00 | 0.13 | 0.13 | 86 | 1009.2 |
| 20260505211545 | 31 | 0 | 0.0 | 2.6 | 0.00 | 0.13 | 0.13 | 85 | 1009.2 |
| 20260505211030 | 31 | 0 | 0.0 | 2.6 | 0.00 | 0.13 | 0.13 | 85 | 1009.2 |
| 20260505210532 | 32 | 0 | 0.0 | 2.6 | 0.00 | 0.13 | 0.13 | 85 | 1009.3 |
| 20260505210046 | 32 | 0 | 0.0 | 3.5 | 0.00 | 0.13 | 0.13 | 84 | 1009.3 |
| 20260505205531 | 32 | 0 | 0.0 | 3.5 | 0.00 | 0.13 | 0.13 | 84 | 1009.1 |
| 20260505205029 | 32 | 246 | 0.0 | 2.6 | 0.00 | 0.13 | 0.13 | 84 | 1009.1 |
| 20260505204544 | 32 | 0 | 0.0 | 2.6 | 0.00 | 0.13 | 0.13 | 84 | 1009.1 |
| 20260505204032 | 32 | 0 | 0.0 | 0.9 | 0.00 | 0.13 | 0.13 | 84 | 1009.1 |
| 20260505203532 | 32 | 0 | 0.0 | 0.9 | 0.00 | 0.13 | 0.13 | 84 | 1009.1 |
| 20260505203101 | 32 | 134 | 0.0 | 1.7 | 0.00 | 0.13 | 0.13 | 83 | 1009.1 |
| 20260505202532 | 32 | 0 | 0.0 | 1.7 | 0.00 | 0.13 | 0.13 | 83 | 1009.1 |
| 20260505202030 | 32 | 0 | 0.0 | 1.7 | 0.00 | 0.13 | 0.13 | 83 | 1009.0 |
| 20260505201547 | 32 | 0 | 0.0 | 0.9 | 0.00 | 0.13 | 0.13 | 83 | 1009.1 |
| 20260505201034 | 33 | 0 | 0.0 | 1.7 | 0.00 | 0.13 | 0.13 | 83 | 1009.1 |
| 20260505200532 | 33 | 0 | 0.0 | 1.7 | 0.00 | 0.13 | 0.13 | 83 | 1009.0 |
| 20260505200049 | 33 | 0 | 0.0 | 1.7 | 0.00 | 0.13 | 0.13 | 83 | 1009.0 |
| 20260505195530 | 33 | 0 | 0.0 | 2.6 | 0.00 | 0.13 | 0.13 | 82 | 1009.1 |
| 20260505195030 | 33 | 0 | 0.0 | 2.6 | 0.00 | 0.13 | 0.13 | 82 | 1009.0 |
| 20260505194543 | 33 | 144 | 0.0 | 1.7 | 0.00 | 0.13 | 0.13 | 82 | 1009.1 |
| 20260505194031 | 33 | 0 | 0.0 | 1.7 | 0.00 | 0.13 | 0.13 | 83 | 1009.0 |
| 20260505193530 | 33 | 300 | 0.0 | 1.7 | 0.00 | 0.13 | 0.13 | 84 | 1008.9 |
| 20260505193038 | 34 | 0 | 0.0 | 2.6 | 0.00 | 0.13 | 0.13 | 84 | 1008.9 |
| 20260505192530 | 34 | 0 | 0.0 | 5.2 | 0.00 | 0.13 | 0.13 | 83 | 1008.8 |
| 20260505192030 | 34 | 134 | 0.9 | 5.2 | 0.00 | 0.13 | 0.13 | 83 | 1008.8 |
| 20260505191541 | 34 | 344 | 0.9 | 4.3 | 0.00 | 0.13 | 0.13 | 82 | 1008.9 |
| 20260505191030 | 34 | 104 | 0.9 | 4.3 | 0.00 | 0.13 | 0.13 | 82 | 1008.8 |
| 20260505190530 | 34 | 160 | 0.0 | 4.3 | 0.00 | 0.13 | 0.13 | 82 | 1008.8 |
| 20260505190046 | 34 | 101 | 1.7 | 4.3 | 0.00 | 0.13 | 0.13 | 83 | 1008.7 |
| 20260505185530 | 34 | 122 | 0.9 | 3.5 | 0.00 | 0.13 | 0.13 | 83 | 1008.6 |
| 20260505185031 | 34 | 0 | 0.0 | 3.5 | 0.00 | 0.13 | 0.13 | 84 | 1008.7 |
| 20260505184543 | 35 | 36 | 0.9 | 6.1 | 0.00 | 0.13 | 0.13 | 84 | 1008.7 |
| 20260505184034 | 35 | 62 | 0.9 | 6.1 | 0.00 | 0.13 | 0.13 | 84 | 1008.8 |
| 20260505183530 | 35 | 94 | 1.7 | 4.3 | 0.00 | 0.13 | 0.13 | 84 | 1008.8 |
| 20260505183043 | 35 | 32 | 0.0 | 2.6 | 0.00 | 0.13 | 0.13 | 85 | 1008.8 |
| 20260505182529 | 35 | 150 | 0.0 | 2.6 | 0.00 | 0.13 | 0.13 | 84 | 1008.8 |
| 20260505182030 | 35 | 0 | 0.0 | 5.2 | 0.00 | 0.13 | 0.13 | 84 | 1008.9 |
| 20260505181544 | 35 | 59 | 0.9 | 5.2 | 0.00 | 0.13 | 0.13 | 83 | 1008.9 |
| 20260505181031 | 35 | 0 | 0.0 | 3.5 | 0.00 | 0.13 | 0.13 | 82 | 1008.8 |
| 20260505180532 | 35 | 0 | 0.0 | 5.2 | 0.00 | 0.13 | 0.13 | 81 | 1008.7 |
| 20260505180040 | 35 | 0 | 0.0 | 5.2 | 0.00 | 0.13 | 0.13 | 80 | 1008.6 |
| 20260505175531 | 35 | 0 | 0.0 | 2.6 | 0.00 | 0.13 | 0.13 | 80 | 1008.6 |
| 20260505175030 | 35 | 0 | 0.0 | 1.7 | 0.00 | 0.13 | 0.13 | 79 | 1008.7 |
| 20260505174545 | 35 | 0 | 0.0 | 1.7 | 0.00 | 0.13 | 0.13 | 79 | 1008.6 |
| 20260505174031 | 35 | 0 | 0.0 | 3.5 | 0.00 | 0.13 | 0.13 | 78 | 1008.7 |
| 20260505173531 | 35 | 0 | 0.9 | 3.5 | 0.00 | 0.13 | 0.13 | 78 | 1008.7 |
| 20260505173043 | 36 | 141 | 0.9 | 4.3 | 0.00 | 0.13 | 0.13 | 77 | 1008.6 |
| 20260505172530 | 36 | 0 | 1.7 | 5.2 | 0.00 | 0.13 | 0.13 | 77 | 1008.5 |
| 20260505172031 | 36 | 0 | 0.0 | 5.2 | 0.00 | 0.13 | 0.13 | 77 | 1008.5 |
| 20260505171544 | 36 | 0 | 0.9 | 3.5 | 0.00 | 0.13 | 0.13 | 77 | 1008.4 |
| 20260505171031 | 36 | 110 | 0.9 | 6.1 | 0.01 | 0.13 | 0.13 | 77 | 1008.3 |
| 20260505170530 | 36 | 0 | 0.9 | 6.1 | 0.01 | 0.13 | 0.13 | 78 | 1008.4 |
| 20260505165530 | 36 | 224 | 0.0 | 2.6 | 0.01 | 0.13 | 0.13 | 80 | 1008.2 |
| 20260505165030 | 36 | 356 | 0.0 | 4.3 | 0.01 | 0.13 | 0.13 | 78 | 1008.2 |
| 20260505164544 | 36 | 0 | 0.0 | 6.1 | 0.01 | 0.13 | 0.13 | 78 | 1008.4 |
| 20260505164030 | 36 | 131 | 0.9 | 6.1 | 0.01 | 0.13 | 0.13 | 78 | 1008.2 |
| 20260505163531 | 36 | 143 | 1.7 | 5.2 | 0.01 | 0.13 | 0.13 | 78 | 1008.2 |
| 20260505163043 | 36 | 0 | 0.9 | 5.2 | 0.01 | 0.13 | 0.13 | 78 | 1008.3 |
| 20260505162533 | 36 | 0 | 0.9 | 5.2 | 0.01 | 0.13 | 0.13 | 78 | 1008.3 |
| 20260505162030 | 36 | 342 | 0.9 | 7.0 | 0.01 | 0.13 | 0.13 | 79 | 1008.2 |
| 20260505161540 | 37 | 41 | 1.7 | 7.0 | 0.01 | 0.13 | 0.13 | 80 | 1008.3 |
| 20260505161030 | 36 | 257 | 0.9 | 4.3 | 0.00 | 0.12 | 0.12 | 81 | 1008.3 |
| 20260505160529 | 36 | 319 | 0.0 | 4.3 | 0.00 | 0.12 | 0.12 | 81 | 1008.2 |
| 20260505153047 | 34 | 103 | 3.5 | 8.7 | 0.00 | 0.12 | 0.12 | 84 | 1008.4 |
| 20260505152532 | 35 | 127 | 3.5 | 8.7 | 0.00 | 0.12 | 0.12 | 83 | 1008.2 |
| 20260505152030 | 36 | 6 | 1.7 | 7.8 | 0.00 | 0.12 | 0.12 | 81 | 1008.1 |
| 20260505151557 | 37 | 13 | 2.6 | 7.8 | 0.00 | 0.12 | 0.12 | 78 | 1008.3 |
| 20260505151031 | 38 | 345 | 0.0 | 3.5 | 0.01 | 0.12 | 0.12 | 78 | 1008.3 |
| 20260505150531 | 38 | 152 | 0.0 | 3.5 | 0.01 | 0.12 | 0.12 | 79 | 1008.3 |
| 20260505140531 | 37 | 3 | 1.7 | 7.0 | 0.00 | 0.11 | 0.11 | 76 | 1007.9 |
| 20260505125030 | 38 | 150 | 0.9 | 5.2 | 0.00 | 0.11 | 0.11 | 69 | 1007.8 |
| 20260505124556 | 39 | 0 | 1.7 | 5.2 | 0.01 | 0.11 | 0.11 | 71 | 1007.8 |
| 20260505124030 | 38 | 0 | 0.9 | 2.6 | 0.01 | 0.11 | 0.11 | 72 | 1007.7 |
| 20260505123528 | 38 | 106 | 0.9 | 4.3 | 0.01 | 0.11 | 0.11 | 71 | 1007.6 |
| 20260505123055 | 38 | 86 | 0.0 | 4.3 | 0.01 | 0.11 | 0.11 | 70 | 1007.8 |
| 20260505122531 | 38 | 94 | 0.9 | 4.3 | 0.01 | 0.11 | 0.11 | 70 | 1007.7 |
| 20260505122031 | 38 | 25 | 0.9 | 7.8 | 0.01 | 0.11 | 0.11 | 68 | 1007.7 |
| 20260505121553 | 38 | 255 | 0.0 | 7.8 | 0.01 | 0.11 | 0.11 | 69 | 1007.6 |
| 20260505121031 | 38 | 163 | 1.7 | 7.8 | 0.01 | 0.11 | 0.11 | 66 | 1007.7 |
| 20260505120530 | 39 | 177 | 1.7 | 4.3 | 0.01 | 0.11 | 0.11 | 66 | 1007.6 |
| 20260505120053 | 39 | 128 | 1.7 | 6.1 | 0.01 | 0.11 | 0.11 | 68 | 1007.6 |
| 20260505115533 | 38 | 156 | 1.7 | 6.1 | 0.01 | 0.11 | 0.11 | 71 | 1007.5 |
| 20260505115031 | 38 | 133 | 0.9 | 7.8 | 0.01 | 0.11 | 0.11 | 73 | 1007.5 |
| 20260505114545 | 39 | 116 | 1.7 | 7.8 | 0.00 | 0.10 | 0.10 | 72 | 1007.6 |
| 20260505114029 | 39 | 112 | 2.6 | 8.7 | 0.00 | 0.10 | 0.10 | 71 | 1007.6 |
| 20260505113530 | 39 | 174 | 2.6 | 9.6 | 0.00 | 0.10 | 0.10 | 74 | 1007.5 |
| 20260505113043 | 39 | 71 | 1.7 | 9.6 | 0.00 | 0.10 | 0.10 | 76 | 1007.5 |
| 20260505112531 | 37 | 61 | 3.5 | 9.6 | 0.00 | 0.10 | 0.10 | 79 | 1007.4 |
| 20260505112031 | 36 | 336 | 1.7 | 7.0 | 0.00 | 0.10 | 0.10 | 81 | 1007.5 |
| 20260505111545 | 35 | 177 | 0.9 | 7.0 | 0.00 | 0.10 | 0.10 | 78 | 1007.6 |
| 20260505111035 | 37 | 142 | 2.6 | 7.0 | 0.00 | 0.10 | 0.10 | 77 | 1007.7 |
| 20260505110531 | 38 | 239 | 0.9 | 7.0 | 0.00 | 0.10 | 0.10 | 75 | 1007.6 |
| 20260505102030 | 40 | 148 | 1.7 | 10.4 | 0.00 | 0.11 | 0.10 | 65 | 1007.0 |
| 20260505101553 | 40 | 314 | 2.6 | 10.4 | 0.00 | 0.11 | 0.10 | 66 | 1007.1 |
| 20260505101031 | 40 | 219 | 1.7 | 8.7 | 0.00 | 0.11 | 0.10 | 68 | 1007.1 |
| 20260505100536 | 39 | 191 | 2.6 | 8.7 | 0.00 | 0.11 | 0.10 | 68 | 1007.1 |
| 20260505100053 | 38 | 151 | 2.6 | 8.7 | 0.01 | 0.11 | 0.10 | 67 | 1007.1 |
| 20260505095530 | 39 | 107 | 1.7 | 7.0 | 0.01 | 0.11 | 0.10 | 65 | 1007.0 |
| 20260505095030 | 39 | 141 | 1.7 | 7.0 | 0.01 | 0.11 | 0.10 | 66 | 1007.0 |
| 20260505094549 | 40 | 74 | 1.7 | 7.0 | 0.01 | 0.11 | 0.10 | 65 | 1006.9 |
| 20260505094030 | 40 | 239 | 2.6 | 7.0 | 0.01 | 0.11 | 0.10 | 66 | 1006.8 |
| 20260505093530 | 39 | 90 | 2.6 | 9.6 | 0.01 | 0.11 | 0.10 | 70 | 1006.9 |
| 20260505093048 | 39 | 271 | 3.5 | 9.6 | 0.01 | 0.11 | 0.10 | 69 | 1006.8 |
| 20260505092531 | 39 | 106 | 4.3 | 8.7 | 0.01 | 0.11 | 0.10 | 69 | 1006.8 |
| 20260505092031 | 39 | 141 | 2.6 | 7.8 | 0.01 | 0.11 | 0.10 | 68 | 1006.7 |
| 20260505091544 | 39 | 94 | 1.7 | 7.0 | 0.01 | 0.11 | 0.10 | 72 | 1006.8 |
| 20260505091033 | 39 | 107 | 1.7 | 7.8 | 0.02 | 0.11 | 0.10 | 72 | 1006.7 |
| 20260505090530 | 39 | 14 | 1.7 | 7.8 | 0.02 | 0.11 | 0.10 | 73 | 1006.7 |
| 20260505090056 | 39 | 108 | 2.6 | 7.8 | 0.01 | 0.10 | 0.09 | 73 | 1006.7 |
| 20260505085530 | 38 | 82 | 1.7 | 4.3 | 0.02 | 0.10 | 0.09 | 74 | 1006.8 |
| 20260505085032 | 38 | 122 | 1.7 | 5.2 | 0.02 | 0.10 | 0.09 | 74 | 1006.6 |
| 20260505084549 | 38 | 107 | 1.7 | 6.1 | 0.02 | 0.10 | 0.09 | 74 | 1006.6 |
| 20260505084029 | 38 | 3 | 1.7 | 6.1 | 0.03 | 0.10 | 0.09 | 74 | 1006.5 |
| 20260505083529 | 38 | 250 | 2.6 | 7.0 | 0.03 | 0.10 | 0.09 | 73 | 1006.5 |
| 20260505083049 | 39 | 224 | 2.6 | 7.8 | 0.04 | 0.10 | 0.09 | 72 | 1006.4 |
| 20260505082530 | 38 | 117 | 3.5 | 8.7 | 0.04 | 0.10 | 0.09 | 73 | 1006.3 |
| 20260505082030 | 39 | 5 | 2.6 | 8.7 | 0.05 | 0.10 | 0.09 | 73 | 1006.2 |
| 20260505081548 | 39 | 195 | 4.3 | 9.6 | 0.04 | 0.09 | 0.08 | 73 | 1006.2 |
| 20260505081034 | 39 | 139 | 2.6 | 9.6 | 0.05 | 0.09 | 0.08 | 74 | 1006.2 |
| 20260505080530 | 39 | 93 | 2.6 | 6.1 | 0.05 | 0.09 | 0.08 | 73 | 1006.2 |
| 20260505080053 | 39 | 108 | 1.7 | 6.1 | 0.06 | 0.09 | 0.08 | 76 | 1006.2 |
| 20260505075532 | 39 | 150 | 1.7 | 6.1 | 0.05 | 0.09 | 0.07 | 76 | 1006.3 |
| 20260505075029 | 39 | 104 | 1.7 | 5.2 | 0.06 | 0.09 | 0.07 | 76 | 1006.2 |
| 20260505074548 | 39 | 97 | 1.7 | 5.2 | 0.06 | 0.09 | 0.07 | 76 | 1006.1 |
| 20260505074030 | 39 | 163 | 2.6 | 5.2 | 0.06 | 0.08 | 0.06 | 77 | 1006.2 |
| 20260505073530 | 38 | 150 | 0.9 | 5.2 | 0.06 | 0.08 | 0.06 | 77 | 1006.1 |
| 20260505073044 | 38 | 14 | 1.7 | 7.8 | 0.05 | 0.07 | 0.05 | 78 | 1006.1 |
| 20260505072531 | 37 | 33 | 1.7 | 12.2 | 0.05 | 0.07 | 0.05 | 77 | 1006.0 |
| 20260505072030 | 37 | 120 | 2.6 | 12.2 | 0.04 | 0.06 | 0.04 | 79 | 1006.0 |
| 20260505071546 | 37 | 63 | 1.7 | 7.0 | 0.04 | 0.06 | 0.04 | 81 | 1006.0 |
| 20260505071030 | 37 | 128 | 1.7 | 7.8 | 0.03 | 0.05 | 0.03 | 80 | 1006.1 |
| 20260505070535 | 37 | 169 | 1.7 | 7.8 | 0.03 | 0.05 | 0.03 | 81 | 1006.0 |
| 20260505070046 | 37 | 173 | 3.5 | 10.4 | 0.02 | 0.04 | 0.02 | 80 | 1006.0 |
| 20260505065531 | 37 | 210 | 2.6 | 10.4 | 0.02 | 0.04 | 0.02 | 81 | 1005.9 |
| 20260505065034 | 36 | 151 | 2.6 | 8.7 | 0.01 | 0.03 | 0.01 | 80 | 1005.8 |
| 20260505064541 | 37 | 83 | 2.6 | 9.6 | 0.01 | 0.03 | 0.01 | 80 | 1005.9 |
| 20260505064030 | 37 | 166 | 2.6 | 9.6 | 0.00 | 0.02 | 0.00 | 80 | 1005.9 |
| 20260505063530 | 36 | 130 | 2.6 | 10.4 | 0.00 | 0.02 | 0.00 | 81 | 1005.9 |
| 20260505063040 | 36 | 311 | 3.5 | 10.4 | 0.00 | 0.02 | 0.00 | 81 | 1005.9 |
| 20260505062533 | 36 | 74 | 1.7 | 5.2 | 0.00 | 0.02 | 0.00 | 81 | 1005.9 |
| 20260505062030 | 36 | 127 | 1.7 | 5.2 | 0.00 | 0.02 | 0.00 | 81 | 1005.8 |
| 20260505061548 | 35 | 127 | 1.7 | 5.2 | 0.00 | 0.02 | 0.00 | 82 | 1005.7 |
| 20260505061032 | 35 | 6 | 0.9 | 5.2 | 0.00 | 0.02 | 0.00 | 84 | 1005.7 |
| 20260505060530 | 35 | 159 | 1.7 | 5.2 | 0.00 | 0.02 | 0.00 | 85 | 1005.5 |
| 20260505060045 | 34 | 255 | 1.7 | 6.1 | 0.00 | 0.02 | 0.00 | 86 | 1005.5 |
| 20260505055533 | 33 | 113 | 1.7 | 6.1 | 0.00 | 0.06 | 0.00 | 87 | 1005.4 |
| 20260505055031 | 33 | 96 | 0.9 | 3.5 | 0.00 | 0.06 | 0.00 | 88 | 1005.3 |
| 20260505054545 | 33 | 0 | 0.0 | 3.5 | 0.00 | 0.06 | 0.00 | 88 | 1005.4 |
| 20260505054033 | 33 | 0 | 0.9 | 4.3 | 0.00 | 0.06 | 0.00 | 88 | 1005.4 |
| 20260505053531 | 33 | 146 | 0.9 | 7.0 | 0.00 | 0.06 | 0.00 | 87 | 1005.3 |
| 20260505053046 | 33 | 159 | 2.6 | 7.0 | 0.00 | 0.06 | 0.00 | 86 | 1005.5 |
| 20260505052531 | 34 | 37 | 0.0 | 4.3 | 0.00 | 0.06 | 0.00 | 86 | 1005.5 |
| 20260505052030 | 34 | 0 | 0.0 | 4.3 | 0.00 | 0.06 | 0.00 | 87 | 1005.4 |
| 20260505051540 | 34 | 127 | 0.9 | 3.5 | 0.00 | 0.06 | 0.00 | 88 | 1005.4 |
| 20260505051030 | 33 | 226 | 0.9 | 3.5 | 0.00 | 0.06 | 0.00 | 90 | 1005.4 |
| 20260505050534 | 32 | 203 | 0.0 | 1.7 | 0.00 | 0.06 | 0.00 | 91 | 1005.4 |
| 20260505041541 | 31 | 159 | 1.7 | 3.5 | 0.00 | 0.06 | 0.00 | 92 | 1005.2 |
| 20260505041029 | 31 | 140 | 0.9 | 3.5 | 0.00 | 0.06 | 0.00 | 92 | 1005.2 |
| 20260505040531 | 31 | 116 | 0.0 | 3.5 | 0.00 | 0.06 | 0.00 | 92 | 1005.1 |
| 20260505040049 | 31 | 136 | 0.9 | 3.5 | 0.00 | 0.06 | 0.00 | 92 | 1005.0 |
| 20260505035531 | 31 | 89 | 0.9 | 3.5 | 0.00 | 0.06 | 0.00 | 92 | 1005.0 |
| 20260505035030 | 31 | 154 | 0.9 | 2.6 | 0.00 | 0.06 | 0.00 | 92 | 1005.0 |
| 20260505034544 | 31 | 176 | 0.9 | 2.6 | 0.00 | 0.06 | 0.00 | 92 | 1004.9 |